DW9896 Eastsound WA US current weather conditions

sailwx.info

Wind from 115 at 6 knots gusting 13

Air temperature 13.3° C
Dewpoint 13.2° C

Last reported at 2019-Sep-22 20:01 UTC.
Time now 2019-Sep-22 20:20 UTC

Location: N 48°40' W 122°52'.
View on Google Maps.

See reports from other nearby stations

  
Tides and Currents Weather Stations Pressure Air Temp Water Temp Dewpoint Dewpoint Depression Visibility Wind Speed Wind Dir Waves Ship Positions
date/time (UTC)wind fromknots sea level pressurealtimeterstation pressurevisibilityair tempwater tempwave heightnotes
2019-Sep-22 20:01 115 6 gusting 13 13.3
2019-Sep-22 19:46 123 6 gusting 18 13.3
2019-Sep-22 19:30 113 8 gusting 16 13.3
2019-Sep-22 19:01 121 6 gusting 16 12.8
2019-Sep-22 18:46 133 7 gusting 19 13.3
2019-Sep-22 18:30 111 6 gusting 18 13.3
2019-Sep-22 18:16 111 6 gusting 16 13.3
2019-Sep-22 18:00 117 7 gusting 16 13.3
2019-Sep-22 17:46 123 6 gusting 18 13.3
2019-Sep-22 17:30 112 7 gusting 18 13.3
2019-Sep-22 17:16 111 8 gusting 17 13.3
2019-Sep-22 17:00 130 9 gusting 19 13.3
2019-Sep-22 16:46 132 7 gusting 17 13.3
2019-Sep-22 16:31 113 8 gusting 14 13.3
2019-Sep-22 16:16 100 8 gusting 15 13.3
2019-Sep-22 16:00 129 7 gusting 17 13.3
2019-Sep-22 15:46 119 7 gusting 19 13.3
2019-Sep-22 15:30 124 7 gusting 16 13.3
2019-Sep-22 15:17 127 6 gusting 13 13.3
2019-Sep-22 15:00 108 7 gusting 13 13.3
2019-Sep-22 14:46 128 9 gusting 18 13.3
2019-Sep-22 14:30 117 7 gusting 13 13.3
2019-Sep-22 14:15 117 5 gusting 15 13.3
2019-Sep-22 14:00 119 6 gusting 17 13.3
2019-Sep-22 13:46 105 9 gusting 18 13.3
2019-Sep-22 13:30 139 8 gusting 19 13.3
2019-Sep-22 13:17 140 7 gusting 18 13.3
2019-Sep-22 12:45 082 6 gusting 17 13.3
2019-Sep-22 12:31 113 7 gusting 18 13.3
2019-Sep-22 12:16 155 7 gusting 16 13.3
2019-Sep-22 11:46 124 7 gusting 16 13.3
2019-Sep-22 11:31 126 6 gusting 14 13.3
2019-Sep-22 11:15 115 7 gusting 15 13.3
2019-Sep-22 11:01 132 7 gusting 15 13.3
2019-Sep-22 10:45 115 7 gusting 15 13.3
2019-Sep-22 10:31 124 9 gusting 16 13.3
2019-Sep-22 10:15 120 8 gusting 16 13.3
2019-Sep-22 10:02 111 6 gusting 13 13.3
2019-Sep-22 09:45 107 6 gusting 12 13.3
2019-Sep-22 09:31 105 5 gusting 13 13.3
2019-Sep-22 09:16 113 5 gusting 14 13.3
2019-Sep-22 09:01 132 5 gusting 13 13.3
2019-Sep-22 08:46 136 6 gusting 11 13.9
2019-Sep-22 08:32 112 4 gusting 9 14.4
2019-Sep-22 08:15 121 2 gusting 9 14.4
2019-Sep-22 08:01 130 4 gusting 10 14.4
2019-Sep-22 07:45 110 4 gusting 7 14.4
2019-Sep-22 07:32 163 6 gusting 11 14.4
2019-Sep-22 07:15 082 5 gusting 11 14.4
2019-Sep-22 07:00 103 4 gusting 11 14.4
2019-Sep-22 06:45 128 5 gusting 9 14.4
2019-Sep-22 06:31 159 4 gusting 10 13.9
2019-Sep-22 06:16 134 4 gusting 10 13.9
2019-Sep-22 06:00 116 5 gusting 8 14.4
2019-Sep-22 05:32 140 3 gusting 7 14.4
2019-Sep-22 05:16 117 5 gusting 11 15.0
2019-Sep-22 05:00 116 2 gusting 7 15.0
2019-Sep-22 04:45 096 3 gusting 7 15.0
2019-Sep-22 04:32 107 2 gusting 6 15.0
2019-Sep-22 04:16 106 2 gusting 6 15.0
2019-Sep-22 04:00 111 2 gusting 7 15.0
2019-Sep-22 03:46 093 3 gusting 6 15.0
2019-Sep-22 03:33 103 2 gusting 6 15.0
2019-Sep-22 03:16 092 3 gusting 6 15.0
2019-Sep-22 02:47 111 0 gusting 6 15.0
2019-Sep-22 02:31 113 4 gusting 6 15.0
2019-Sep-22 02:15 096 4 gusting 6 15.0
2019-Sep-22 02:00 103 2 gusting 5 15.0
2019-Sep-22 01:31 099 3 gusting 6 15.0
2019-Sep-22 01:16 104 3 gusting 6 15.0
2019-Sep-22 01:00 160 2 gusting 4 15.0
2019-Sep-22 00:45 160 1 gusting 4 15.6
2019-Sep-22 00:16 159 2 gusting 6 16.1
2019-Sep-22 00:00 155 1 gusting 4 15.6
2019-Sep-21 23:47 172 1 gusting 5 16.1
2019-Sep-21 23:31 180 1 gusting 5 16.1
2019-Sep-21 23:16 146 1 gusting 6 16.1
2019-Sep-21 23:00 172 4 gusting 6 16.1
2019-Sep-21 22:46 190 5 gusting 7 16.1
2019-Sep-21 22:31 186 4 gusting 8 16.1
2019-Sep-21 22:16 159 3 gusting 7 16.1
2019-Sep-21 22:00 159 4 gusting 8 16.7
2019-Sep-21 21:46 161 1 gusting 8 17.2
2019-Sep-21 21:31 175 4 gusting 7 17.2
2019-Sep-21 21:16 091 3 gusting 6 16.7
2019-Sep-21 21:00 156 3 gusting 6 16.1
2019-Sep-21 20:48 126 1 gusting 5 15.6
2019-Sep-21 20:30 175 2 gusting 6 15.0
2019-Sep-21 20:16 164 6 gusting 8 15.0
2019-Sep-21 20:01 225 6 gusting 10 15.6
2019-Sep-21 19:45 169 5 gusting 8 15.0
2019-Sep-21 19:31 168 3 gusting 7 14.4
2019-Sep-21 19:15 173 4 gusting 9 14.4
2019-Sep-21 19:00 177 2 gusting 10 14.4
2019-Sep-21 18:46 174 1 gusting 8 14.4
2019-Sep-21 18:30 186 4 gusting 7 15.0
2019-Sep-21 18:15 160 5 gusting 8 14.4
2019-Sep-21 18:00 136 2 gusting 6 13.3
2019-Sep-21 17:45 155 1 gusting 6 13.3
2019-Sep-21 17:31 152 0 gusting 5 12.8
2019-Sep-21 17:15 110 1 gusting 6 12.8
2019-Sep-21 17:01 138 1 gusting 5 12.2
2019-Sep-21 16:46 150 1 gusting 6 12.2
2019-Sep-21 16:30 161 2 gusting 5 12.2
2019-Sep-21 16:15 118 1 gusting 7 12.2
2019-Sep-21 16:00 103 1 gusting 6 12.2
2019-Sep-21 15:45 131 1 gusting 6 12.2
2019-Sep-21 15:30 110 2 gusting 6 12.2
2019-Sep-21 15:17 144 1 gusting 6 12.8
2019-Sep-21 15:01 110 3 gusting 7 12.2
2019-Sep-21 14:45 159 4 gusting 10 12.2
2019-Sep-21 14:30 118 0 gusting 5 12.2
2019-Sep-21 14:16 099 3 gusting 6 12.2
2019-Sep-21 14:00 109 3 gusting 6 11.7
2019-Sep-21 13:46 090 3 gusting 6 11.7
2019-Sep-21 13:30 109 3 gusting 6 11.7
2019-Sep-21 13:16 110 1 gusting 5 12.2
2019-Sep-21 13:01 103 2 gusting 6 12.2
2019-Sep-21 12:45 104 2 gusting 5 11.7
2019-Sep-21 12:31 109 3 gusting 6 12.2
2019-Sep-21 12:15 104 3 gusting 7 12.2
2019-Sep-21 12:00 121 2 gusting 5 12.2
2019-Sep-21 11:45 103 2 gusting 5 12.8
2019-Sep-21 11:32 105 1 gusting 6 12.8
2019-Sep-21 11:15 107 3 gusting 6 12.8
2019-Sep-21 11:00 117 1 gusting 3 12.8
2019-Sep-21 10:46 117 1 gusting 3 12.8
2019-Sep-21 10:30 117 1 gusting 3 12.8
2019-Sep-21 10:15 117 0 gusting 3 13.3
2019-Sep-21 10:01 117 13.3
2019-Sep-21 09:45 117 1 gusting 3 13.3
2019-Sep-21 09:30 117 0 gusting 3 13.3
2019-Sep-21 09:16 117 0 gusting 3 13.3
2019-Sep-21 09:00 117 1 gusting 3 13.3
2019-Sep-21 08:47 117 1 gusting 3 13.3
2019-Sep-21 08:31 117 13.9
2019-Sep-21 08:15 117 0 gusting 5 13.9
2019-Sep-21 08:02 126 2 gusting 7 13.9
2019-Sep-21 07:46 105 1 gusting 5 13.9
2019-Sep-21 07:30 113 0 gusting 7 13.9
2019-Sep-21 07:15 089 3 gusting 6 13.9
2019-Sep-21 07:02 099 1 gusting 6 13.9
2019-Sep-21 06:45 101 3 gusting 6 13.9
2019-Sep-21 06:32 078 3 gusting 9 13.9
2019-Sep-21 06:15 093 4 gusting 11 13.9
2019-Sep-21 06:02 090 5 gusting 8 13.9
2019-Sep-21 05:45 076 3 gusting 7 13.9
2019-Sep-21 05:30 111 3 gusting 7 13.9
2019-Sep-21 05:16 109 3 gusting 6 13.9
2019-Sep-21 04:46 104 5 gusting 6 13.9
2019-Sep-21 04:31 117 3 gusting 8 14.4
2019-Sep-21 04:15 105 4 gusting 6 14.4
2019-Sep-21 04:01 101 5 gusting 6 14.4
2019-Sep-21 03:45 109 4 gusting 6 14.4
2019-Sep-21 03:30 108 4 gusting 7 14.4
2019-Sep-21 03:15 096 3 gusting 6 14.4
2019-Sep-21 03:02 099 2 gusting 6 14.4
2019-Sep-21 02:47 098 2 gusting 5 14.4
2019-Sep-21 02:30 098 2 gusting 6 14.4
2019-Sep-21 02:16 092 2 gusting 6 14.4
2019-Sep-21 02:00 091 2 gusting 6 15.0
2019-Sep-21 01:31 150 1 gusting 4 15.6
2019-Sep-21 01:15 163 1 gusting 5 15.6
2019-Sep-21 01:00 174 1 gusting 6 15.6
2019-Sep-21 00:46 178 4 gusting 6 15.6
2019-Sep-21 00:30 168 1 gusting 4 15.0
2019-Sep-21 00:17 172 1 gusting 6 15.0
2019-Sep-21 00:01 161 3 gusting 6 15.6
2019-Sep-20 23:45 161 1 gusting 6 15.6
2019-Sep-20 23:33 171 4 gusting 6 17.2
2019-Sep-20 23:17 283 1 gusting 7 17.8
2019-Sep-20 23:01 263 2 gusting 6 18.9
2019-Sep-20 22:45 256 4 gusting 6 18.3
2019-Sep-20 22:30 275 1 gusting 6 18.9
2019-Sep-20 22:17 306 4 gusting 7 18.9
2019-Sep-20 22:01 327 3 gusting 9 18.3
2019-Sep-20 21:45 277 2 gusting 6 17.8
2019-Sep-20 21:30 304 6 gusting 9 17.2
2019-Sep-20 21:16 291 3 gusting 9 16.7
2019-Sep-20 21:01 294 2 gusting 7 16.1
2019-Sep-20 20:46 277 2 gusting 6 15.6
2019-Sep-20 20:30 293 3 gusting 6 15.6
2019-Sep-20 20:16 295 1 gusting 6 16.1
2019-Sep-20 20:01 294 2 gusting 6 16.1